TimeEST,TemperatureF,Dew PointF,Humidity,Sea Level PressureIn,VisibilityMPH,Wind Direction,Wind SpeedMPH,Gust SpeedMPH,PrecipitationIn,Events,Conditions,WindDirDegrees,DateUTC
12:51 AM,20.1,18.1,92,30.01,10.0,Calm,Calm,-,N/A,,Clear,0,2012-12-29 05:51:00
1:51 AM,18.1,15.1,88,30.01,10.0,Calm,Calm,-,N/A,,Clear,0,2012-12-29 06:51:00
2:51 AM,20.1,18.1,92,30.02,10.0,Calm,Calm,-,N/A,,Clear,0,2012-12-29 07:51:00
3:51 AM,20.1,18.1,92,30.01,10.0,Calm,Calm,-,N/A,,Clear,0,2012-12-29 08:51:00
4:51 AM,19.0,17.1,92,30.00,10.0,Calm,Calm,-,N/A,,Clear,0,2012-12-29 09:51:00
5:51 AM,20.1,17.1,88,30.00,10.0,Calm,Calm,-,N/A,,Clear,0,2012-12-29 10:51:00
6:51 AM,21.0,18.1,89,29.99,10.0,Calm,Calm,-,N/A,,Clear,0,2012-12-29 11:51:00
7:51 AM,22.1,19.0,88,29.99,10.0,Calm,Calm,-,N/A,,Clear,0,2012-12-29 12:51:00
8:51 AM,24.1,20.1,85,29.99,10.0,Calm,Calm,-,N/A,,Clear,0,2012-12-29 13:51:00
9:51 AM,26.1,21.0,81,29.97,10.0,Calm,Calm,-,N/A,,Clear,0,2012-12-29 14:51:00
10:51 AM,27.1,21.0,78,29.91,10.0,Calm,Calm,-,N/A,,Clear,0,2012-12-29 15:51:00
11:51 AM,29.1,21.0,72,29.90,10.0,Calm,Calm,-,N/A,,Mostly Cloudy,0,2012-12-29 16:51:00
12:51 PM,29.1,21.0,72,29.84,10.0,NNE,6.9,-,N/A,,Partly Cloudy,20,2012-12-29 17:51:00
1:51 PM,29.1,22.1,75,29.79,10.0,Variable,4.6,-,0.00,,Partly Cloudy,0,2012-12-29 18:51:00
2:51 PM,29.1,22.1,75,29.76,10.0,NNE,3.5,-,0.00,,Clear,30,2012-12-29 19:51:00
3:27 PM,30.2,23.0,75,29.74,10.0,Calm,Calm,-,N/A,,Mostly Cloudy,0,2012-12-29 20:27:00
3:51 PM,29.1,23.0,78,29.74,10.0,North,4.6,-,0.00,,Overcast,10,2012-12-29 20:51:00
4:00 PM,28.4,24.8,86,29.73,2.0,Calm,Calm,-,0.00,Snow,Light Snow,0,2012-12-29 21:00:00
4:51 PM,29.1,25.2,85,29.68,2.0,Calm,Calm,-,0.00,Snow,Light Snow,0,2012-12-29 21:51:00
4:58 PM,28.4,24.8,86,29.66,4.0,Calm,Calm,-,0.00,Snow,Light Snow,0,2012-12-29 21:58:00
5:19 PM,28.4,26.6,93,29.64,1.5,North,4.6,-,0.00,Snow,Light Snow,360,2012-12-29 22:19:00
5:22 PM,28.4,26.6,93,29.64,1.0,North,4.6,-,0.00,Snow,Light Snow,360,2012-12-29 22:22:00
5:31 PM,28.4,26.6,93,29.63,0.8,Calm,Calm,-,0.00,Snow,Light Snow,0,2012-12-29 22:31:00
5:56 PM,28.4,26.6,93,29.60,1.2,North,6.9,-,0.00,Snow,Light Snow,350,2012-12-29 22:56:00
6:09 PM,28.4,26.6,93,29.59,1.0,North,9.2,-,0.00,Snow,Light Snow,360,2012-12-29 23:09:00
6:21 PM,28.4,26.6,93,29.59,0.8,North,11.5,-,0.00,Snow,Light Snow,360,2012-12-29 23:21:00
6:51 PM,29.1,27.1,92,29.58,0.5,North,16.1,-,0.00,Fog-Snow,Light Snow,350,2012-12-29 23:51:00
6:58 PM,28.4,26.6,93,29.55,0.5,North,9.2,-,0.00,Fog-Snow,Light Snow,350,2012-12-29 23:58:00
7:23 PM,28.4,26.6,93,29.53,0.8,North,11.5,-,0.00,Snow,Light Snow,360,2012-12-30 00:23:00
7:30 PM,28.4,26.6,93,29.52,0.5,North,8.1,25.3,0.00,Snow,Light Snow,360,2012-12-30 00:30:00
8:13 PM,28.4,28.4,100,29.50,0.8,North,9.2,21.9,0.00,Snow,Light Snow,350,2012-12-30 01:13:00
8:26 PM,28.4,28.4,100,29.49,0.5,North,17.3,24.2,0.00,Snow,Light Snow,350,2012-12-30 01:26:00
8:36 PM,28.4,28.4,100,29.48,0.8,North,13.8,-,0.00,Snow,Light Snow,350,2012-12-30 01:36:00
8:51 PM,29.1,28.0,96,29.48,0.5,North,8.1,-,0.00,Snow,Light Snow,350,2012-12-30 01:51:00
8:58 PM,28.4,26.6,93,29.47,0.5,North,8.1,23.0,0.00,Snow,Light Snow,350,2012-12-30 01:58:00
9:51 PM,29.1,27.1,92,29.48,0.8,North,10.4,-,0.00,Snow,Light Snow,350,2012-12-30 02:51:00
9:58 PM,28.4,26.6,93,29.46,0.8,North,19.6,24.2,0.00,Snow,Light Snow,360,2012-12-30 02:58:00
10:08 PM,28.4,26.6,93,29.47,0.8,North,13.8,26.5,0.00,Snow,Light Snow,350,2012-12-30 03:08:00
10:17 PM,28.4,26.6,93,29.48,0.8,North,18.4,23.0,0.00,Snow,Light Snow,350,2012-12-30 03:17:00
10:26 PM,28.4,26.6,93,29.48,0.8,NNW,15.0,26.5,0.00,Snow,Light Snow,340,2012-12-30 03:26:00
10:51 PM,28.0,25.2,89,29.49,0.5,North,16.1,27.6,0.00,Snow,Light Snow,350,2012-12-30 03:51:00
10:55 PM,26.6,24.8,93,29.47,0.5,North,12.7,27.6,0.00,Snow,Light Snow,350,2012-12-30 03:55:00
11:01 PM,26.6,24.8,93,29.47,0.8,North,23.0,26.5,0.00,Snow,Light Snow,350,2012-12-30 04:01:00
11:24 PM,26.6,24.8,93,29.47,1.0,North,10.4,-,0.00,Snow,Light Snow,350,2012-12-30 04:24:00
11:51 PM,28.0,25.2,89,29.49,1.2,NNW,10.4,40.3,0.00,Snow,Light Snow,340,2012-12-30 04:51:00